Showing default

KINEIS-4E, 63300

Orbit data source: Space-Track

KINEIS-4E, 63300 is a French payload satellite in SSO that was launched on Tue, 18 Mar 2025 UTC via an ELECTRON launch vehicle from the Rocket Lab Launch Complex (RLLC). Payload-class satellites include a variety of spacecraft equipped with specific instruments for various scientific and technological missions. These include communications satellites like Starlink; space stations such as the ISS; scientific satellites like the Hubble; Earth observation satellites from companies like Planet Labs, Umbra, and HawkEye 360; GPS; miniature CubeSats for education and research; and military/defense satellites.

Loading next visibility...
Identifier
63300, 2025-056A
Orbit
SSO
Last TLE update
10 hours ago
Origin
Manufacturer
KINEIS
Mission
Operational Commercial Communications
Bus & Motor
CUBESAT 16U, Unknown motor
Mass
28 kg wet, 28 kg dry
Launch date (UTC)
2025-03-18 (2 months ago)
Launch vehicle
ELECTRON
Launch site
Rocket Lab Launch Complex (RLLC)
Object type
Payload
Rocket body
Debris
Shape & HBR
Box + 2 Pan + 1 Ant, 1.6 m
Radar Cross Section
0.229 m², Medium (>0.1 m² and < 1m²)

Expand to show TLE details & history

TLE from 10 hours ago
0 KINEIS-4E
1 63300U 25056A   25128.88028547  .00002657  00000-0  42870-3 0  9994
2 63300  97.9764 255.3254 0002197 118.1962 241.9467 14.72241712  7639
Epoch: 2025-05-08T21:07Z
Definitive object data (Epoch: 2025-05-08T21:07:36.664Z)
Latitude
-0.00008°
Longitude
71.47821°
Altitude
657.656 km
Speed
7.528 km/s
True Right ascension
17h 01m 18s
True Declination
0° 00' 00"
Sunlit
Object was in full shadow at TLE epoch
Visualization TLE readout
Latitude
-56.54917°
Longitude
84.04575°
Altitude
677.376 km
Speed
7.516 km/s
Apparent Right ascension
23h 20m 04s
Apparent Declination
-70° 20' 24"
Sunlit
Object is in full shadow
Visualization observer readout
Local Sidereal Time
14:48:06
Azimuth
155.779° SSE
Elevation
-49.738°
Doppler factor
1
Orbital elements
Apogee altitude
652.52 km
Perigee altitude
649.431 km
Semi-major axis
7,029.112 km
Eccentricity
0.0002197
Inclination
97.9764°
RAAN
255.3254°
Arg. of periapsis
118.1962°
True anomaly
241.92448°
Mean anomaly
241.9467°
Eccentric anomaly
241.93559°
Mean motion
3.68292 °/min
BSTAR
0.0004287
Orbital period
97.75 mins
Loading maneuver chart data...
Loading SW <> Apogee altitude chart data...
Loading historical data...
Loading historical data...
Loading historical data...
Loading historical data...
Loading historical data...
Loading historical data...
Loading historical data...

KINEIS-4E Visibility forecast

Observer location: undefined°, undefined°

Span
Click to sort rows by Start time (UTC) header in descending order
Start Az.
Max El. time (UTC)
Max El. Az.
Max El.
End time (UTC)
End Az.
4 mins2025-05-09 07:05:14.682Z90° ESE2025-05-09 07:07:14.682Z62.603° ENE13.125°2025-05-09 07:09:14.682Z35.52° NE
7 mins2025-05-09 08:40:14.682Z183.112° SSW2025-05-09 08:43:14.682Z244.56° WSW40.483°2025-05-09 08:47:14.682Z337.703° N
6 mins2025-05-09 20:33:14.682Z44.456° NE2025-05-09 20:36:14.682Z100.198° ESE25.75°2025-05-09 20:39:14.682Z151.095° SSE
6 mins2025-05-09 22:10:14.682Z335.935° NNW2025-05-09 22:12:14.682Z302.742° NW22.668°2025-05-09 22:16:14.682Z238.016° WSW
|